Simultaneous Nadir Overpasses (SNOs) Predictions

Prediction of SNOs between GOES-17 and NOAA-20 Satellite Orbit:

Table of predicted SNOs for the next 14.0 days since TLE Epoch: 11/20/2020
Index Date Time (GOES-17) GOES-17 Lat,Lon NOAA-20 Lat,Lon Distance(km) Time Diff (sec)
1 11/21/2020 10:20:45 0.01,-137.21 -0.75,-133.83 386.11 80
2 11/22/2020 22:40:02 -0.01,-137.21 -0.41,-139.14 218.52 80
3 11/23/2020 22:23:58 -0.01,-137.22 0.59,-134.60 298.60 80
4 11/25/2020 10:43:06 0.01,-137.24 0.60,-139.87 300.11 80
5 11/26/2020 10:27:02 0.01,-137.25 -0.40,-135.34 216.76 80
6 11/27/2020 22:46:19 -0.01,-137.24 -0.76,-140.65 388.57 80
7 11/28/2020 22:30:15 -0.01,-137.24 0.24,-136.12 127.85 80
8 11/30/2020 10:49:23 0.01,-137.25 0.94,-141.39 472.11 80
9 12/01/2020 10:33:19 0.01,-137.24 -0.06,-136.86 43.77 80
10 12/03/2020 22:33:51 -0.01,-137.21 -0.09,-137.64 47.87 80
